Location: Newark
(44.4156°N, 12.1972°E)
Time: 00:49:06
(UTC+00:00)

STARLINK-1128 - Pass Details

Date: 04 February 2020
Orbit: 520 x 522 km, 53.0° (Epoch: 17 February)

Event Time Altitude Azimuth Distance (km) Brightness Sun altitude
Rises 17:23:12 0° 294° (WNW) 2,628 8.1 -10.9°
Reaches altitude 10° 17:25:48 10° 278° (W) 1,735 7.4 -11.4°
Maximum altitude 17:28:46 21° 229° (SW) 1,195 6.2 -11.9°
Drops below altitude 10° 17:31:43 10° 179° (S) 1,721 6.3 -12.4°
Sets 17:34:17 0° 163° (SSE) 2,600 7.0 -12.9°
